Time,TemperatureF,DewpointF,PressureIn,WindDirection,WindDirectionDegrees,WindSpeedMPH,WindSpeedGustMPH,Humidity,HourlyPrecipIn,Conditions,Clouds,dailyrainin,SoftwareType,DateUTC
2013-01-06 13:12:00,52.0,27.0,29.98,SSW,211,10.0,15.0,38,0.00,,,0.00,,2013-01-06 21:12:00,
2013-01-06 13:22:00,52.0,27.0,29.97,SW,232,8.0,14.0,38,0.00,,,0.00,,2013-01-06 21:22:00,
2013-01-06 13:32:00,53.0,26.0,29.97,WSW,237,8.0,13.0,35,0.00,,,0.00,,2013-01-06 21:32:00,
2013-01-06 13:42:00,53.0,26.0,29.97,WSW,237,8.0,13.0,35,0.00,,,0.00,,2013-01-06 21:42:00,
2013-01-06 13:53:00,53.0,27.0,29.96,West,268,8.0,15.0,36,0.00,,,0.00,,2013-01-06 21:53:00,
2013-01-06 14:01:00,52.0,26.0,29.96,WSW,256,7.0,17.0,36,0.00,,,0.00,,2013-01-06 22:01:00,
2013-01-06 14:12:00,52.0,26.0,29.96,WSW,256,7.0,17.0,36,0.00,,,0.00,,2013-01-06 22:12:00,
2013-01-06 14:22:00,52.0,26.0,29.96,West,261,6.0,16.0,36,0.00,,,0.00,,2013-01-06 22:22:00,
2013-01-06 14:32:00,53.0,26.0,29.97,WSW,240,10.0,16.0,35,0.00,,,0.00,,2013-01-06 22:32:00,
2013-01-06 14:42:00,53.0,26.0,29.97,WSW,240,10.0,16.0,35,0.00,,,0.00,,2013-01-06 22:42:00,
2013-01-06 14:52:00,52.0,25.0,29.96,SW,234,12.0,16.0,35,0.00,,,0.00,,2013-01-06 22:52:00,
2013-01-06 15:02:00,53.0,27.0,29.96,West,261,5.0,13.0,36,0.00,,,0.00,,2013-01-06 23:02:00,
2013-01-06 15:12:00,53.0,27.0,29.96,West,261,5.0,13.0,36,0.00,,,0.00,,2013-01-06 23:12:00,
2013-01-06 15:22:00,53.0,25.0,29.96,WSW,246,12.0,18.0,34,0.00,,,0.00,,2013-01-06 23:22:00,
2013-01-06 15:32:00,53.0,25.0,29.96,SW,227,9.0,18.0,34,0.00,,,0.00,,2013-01-06 23:32:00,
2013-01-06 15:42:00,53.0,25.0,29.96,SW,227,9.0,18.0,34,0.00,,,0.00,,2013-01-06 23:42:00,
2013-01-06 15:53:00,53.0,26.0,29.96,SW,229,13.0,17.0,35,0.00,,,0.00,,2013-01-06 23:53:00,
2013-01-06 16:02:00,52.0,25.0,29.96,WSW,237,11.0,18.0,35,0.00,,,0.00,,2013-01-07 00:02:00,
2013-01-06 16:11:00,52.0,25.0,29.96,WSW,237,11.0,18.0,35,0.00,,,0.00,,2013-01-07 00:11:00,
2013-01-06 16:22:00,51.0,26.0,29.96,WSW,246,10.0,17.0,38,0.00,,,0.00,,2013-01-07 00:22:00,
2013-01-06 16:32:00,50.0,26.0,29.96,SW,234,11.0,15.0,39,0.00,,,0.00,,2013-01-07 00:32:00,
2013-01-06 16:42:00,50.0,26.0,29.96,SW,234,11.0,15.0,39,0.00,,,0.00,,2013-01-07 00:42:00,
2013-01-06 16:53:00,49.0,27.0,29.96,SW,225,9.0,17.0,42,0.00,,,0.00,,2013-01-07 00:53:00,
2013-01-06 17:02:00,48.0,27.0,29.96,SW,219,8.0,18.0,43,0.00,,,0.00,,2013-01-07 01:02:00,
2013-01-06 17:11:00,48.0,27.0,29.96,SW,219,8.0,18.0,43,0.00,,,0.00,,2013-01-07 01:11:00,
2013-01-06 17:22:00,48.0,28.0,29.96,SW,229,11.0,15.0,45,0.00,,,0.00,,2013-01-07 01:22:00,
2013-01-06 17:32:00,47.0,27.0,29.96,SW,234,9.0,18.0,46,0.00,,,0.00,,2013-01-07 01:32:00,
2013-01-06 17:42:00,47.0,27.0,29.96,SW,234,9.0,18.0,46,0.00,,,0.00,,2013-01-07 01:42:00,
2013-01-06 17:52:00,47.0,26.0,29.96,WSW,240,7.0,13.0,43,0.00,,,0.00,,2013-01-07 01:52:00,
2013-01-06 18:01:00,47.0,25.0,29.97,West,271,8.0,14.0,41,0.00,,,0.00,,2013-01-07 02:01:00,
2013-01-06 18:11:00,47.0,25.0,29.97,West,271,8.0,14.0,41,0.00,,,0.00,,2013-01-07 02:11:00,
2013-01-06 18:22:00,47.0,27.0,29.98,NNW,334,4.0,11.0,46,0.00,,,0.00,,2013-01-07 02:22:00,
2013-01-06 18:32:00,46.0,25.0,29.98,NW,314,3.0,9.0,44,0.00,,,0.00,,2013-01-07 02:32:00,
2013-01-06 18:42:00,46.0,25.0,29.98,NW,314,3.0,9.0,44,0.00,,,0.00,,2013-01-07 02:42:00,
2013-01-06 18:53:00,46.0,24.0,29.98,NW,315,3.0,6.0,41,0.00,,,0.00,,2013-01-07 02:53:00,
2013-01-06 19:02:00,46.0,25.0,29.98,NNW,338,5.0,6.0,43,0.00,,,0.00,,2013-01-07 03:02:00,
2013-01-06 19:11:00,46.0,25.0,29.98,NNW,338,5.0,6.0,43,0.00,,,0.00,,2013-01-07 03:11:00,
2013-01-06 19:22:00,45.0,25.0,29.99,NW,325,6.0,12.0,45,0.00,,,0.00,,2013-01-07 03:22:00,
2013-01-06 19:32:00,46.0,24.0,30.00,North,355,11.0,16.0,42,0.00,,,0.00,,2013-01-07 03:32:00,
2013-01-06 19:42:00,46.0,24.0,30.00,North,355,11.0,16.0,42,0.00,,,0.00,,2013-01-07 03:42:00,
2013-01-06 19:52:00,46.0,25.0,30.01,North,360,9.0,12.0,44,0.00,,,0.00,,2013-01-07 03:52:00,
2013-01-06 20:02:00,46.0,26.0,30.01,North,355,16.0,19.0,45,0.00,,,0.00,,2013-01-07 04:02:00,
2013-01-06 20:12:00,46.0,26.0,30.01,North,355,16.0,19.0,45,0.00,,,0.00,,2013-01-07 04:12:00,
2013-01-06 20:22:00,45.0,24.0,30.02,NNW,346,3.0,12.0,44,0.00,,,0.00,,2013-01-07 04:22:00,
2013-01-06 20:32:00,45.0,24.0,30.02,NNW,342,1.0,7.0,43,0.00,,,0.00,,2013-01-07 04:32:00,
2013-01-06 20:42:00,45.0,24.0,30.02,NNW,342,1.0,7.0,43,0.00,,,0.00,,2013-01-07 04:42:00,
2013-01-06 20:52:00,45.0,24.0,30.02,NNW,331,3.0,15.0,43,0.00,,,0.00,,2013-01-07 04:52:00,
2013-01-06 21:02:00,45.0,28.0,30.03,NNW,348,0.0,4.0,52,0.00,,,0.00,,2013-01-07 05:02:00,
2013-01-06 21:12:00,45.0,28.0,30.03,NNW,348,0.0,4.0,52,0.00,,,0.00,,2013-01-07 05:12:00,
2013-01-06 21:22:00,44.0,28.0,30.03,ESE,111,0.0,4.0,52,0.00,,,0.00,,2013-01-07 05:22:00,
2013-01-06 21:32:00,44.0,27.0,30.03,North,355,3.0,7.0,50,0.00,,,0.00,,2013-01-07 05:32:00,
2013-01-06 21:42:00,44.0,27.0,30.03,North,355,3.0,7.0,50,0.00,,,0.00,,2013-01-07 05:42:00,
2013-01-06 21:52:00,43.0,24.0,30.03,NNW,342,4.0,10.0,47,0.00,,,0.00,,2013-01-07 05:52:00,
2013-01-06 22:02:00,43.0,24.0,30.03,NNE,13,2.0,10.0,47,0.00,,,0.00,,2013-01-07 06:02:00,
2013-01-06 22:12:00,43.0,24.0,30.03,NNE,13,2.0,10.0,47,0.00,,,0.00,,2013-01-07 06:12:00,
2013-01-06 22:22:00,42.0,23.0,30.03,NNE,23,0.0,6.0,47,0.00,,,0.00,,2013-01-07 06:22:00,
2013-01-06 22:32:00,42.0,25.0,30.04,NNE,19,1.0,3.0,50,0.00,,,0.00,,2013-01-07 06:32:00,
2013-01-06 22:42:00,42.0,25.0,30.04,NNE,19,1.0,3.0,50,0.00,,,0.00,,2013-01-07 06:42:00,
2013-01-06 22:52:00,42.0,29.0,30.06,North,360,3.0,4.0,60,0.00,,,0.00,,2013-01-07 06:52:00,
2013-01-06 23:02:00,41.0,29.0,30.06,NNE,13,3.0,5.0,63,0.00,,,0.00,,2013-01-07 07:02:00,
2013-01-06 23:11:00,41.0,29.0,30.06,NNE,13,3.0,5.0,63,0.00,,,0.00,,2013-01-07 07:11:00,
2013-01-06 23:22:00,41.0,31.0,30.06,NNE,14,0.0,0.0,66,0.00,,,0.00,,2013-01-07 07:22:00,
2013-01-06 23:32:00,40.0,30.0,30.06,NNE,15,0.0,0.0,66,0.00,,,0.00,,2013-01-07 07:32:00,
2013-01-06 23:42:00,40.0,30.0,30.06,NNE,15,0.0,0.0,66,0.00,,,0.00,,2013-01-07 07:42:00,
2013-01-06 23:52:00,39.0,28.0,30.06,NNW,344,0.0,3.0,65,0.00,,,0.00,,2013-01-07 07:52:00,